This is the latest recevied weather packets stored in our database for station/object N0QV. If no packets are shown the sender has not sent any weather packets the latest 10 day(s).
| Time | Temp. | Humidity | Pressure | Rain* | Wind** | Luminosity | Snow |
|---|---|---|---|---|---|---|---|
| 1777390631 | 9.44° C | 53% | 1017.4 hPa | 0 mm | - | 541 W/m² | - |
| 1777390328 | 10° C | 52% | 1017 hPa | 0 mm | - | 455 W/m² | - |
| 1777390023 | 10° C | 52% | 1017.2 hPa | 0 mm | - | 536 W/m² | - |
| 1777389721 | 10° C | 54% | 1017.1 hPa | 0 mm | - | 639 W/m² | - |
| 1777389417 | 10° C | 51% | 1016.8 hPa | 0 mm | - | 623 W/m² | - |
| 1777389115 | 9.44° C | 55% | 1017.1 hPa | 0 mm | - | 548 W/m² | - |
| 1777388812 | 9.44° C | 55% | 1016.9 hPa | 0 mm | - | 451 W/m² | - |
| 1777388509 | 8.89° C | 55% | 1017 hPa | 0 mm | - | 480 W/m² | - |
| 1777388204 | 9.44° C | 54% | 1017.2 hPa | 0 mm | - | 464 W/m² | - |
| 1777387899 | 9.44° C | 54% | 1017.3 hPa | 0 mm | - | 493 W/m² | - |
| 1777387596 | 8.89° C | 55% | 1017.3 hPa | 0 mm | - | 414 W/m² | - |
| 1777387292 | 8.89° C | 56% | 1017.4 hPa | 0 mm | - | 458 W/m² | - |
| 1777386987 | 8.89° C | 57% | 1017.3 hPa | 0 mm | - | 497 W/m² | - |
| 1777386684 | 8.89° C | 58% | 1017.3 hPa | 0 mm | - | 382 W/m² | - |
| 1777386381 | 8.89° C | 59% | 1017.2 hPa | 0 mm | - | 422 W/m² | - |
| 1777386079 | 8.33° C | 56% | 1017.3 hPa | 0 mm | - | 424 W/m² | - |
| 1777385775 | 8.33° C | 58% | 1017.1 hPa | 0 mm | - | 397 W/m² | - |
| 1777385472 | 7.78° C | 59% | 1016.9 hPa | 0 mm | - | 382 W/m² | - |
| 1777385169 | 7.78° C | 59% | 1016.8 hPa | 0 mm | - | 377 W/m² | - |
| 1777384864 | 7.22° C | 61% | 1016.8 hPa | 0 mm | - | 326 W/m² | - |
| 1777384562 | 7.22° C | 60% | 1016.8 hPa | 0 mm | - | 264 W/m² | - |
| 1777384256 | 7.22° C | 62% | 1016.9 hPa | 0 mm | - | 292 W/m² | - |
| 1777383952 | 7.22° C | 62% | 1016.4 hPa | 0 mm | - | 284 W/m² | - |
| 1777383648 | 7.22° C | 63% | 1016.3 hPa | 0 mm | - | 279 W/m² | - |
| 1777383345 | 6.67° C | 64% | 1016.3 hPa | 0 mm | - | 212 W/m² | - |
* Rain latest hour (hover to see other rain measurements)
** Current wind speed in m/s (hover to see current wind gust speed)